COSMOS 2251 DEB

Satellite information

Favourite Embed

Satellite Type and Status

DEBRISIN ORBIT

Key statistics

Satellite COSMOS 2251 DEB at a glance.

Uptime

11769

Days in orbit

Revolutions

≈ 14.3

Per day

Orbit

LEO

Low Earth Orbit

Inclination

74.0

Latest

Satellite identification and parameters

Extended collection of information and parameters for COSMOS 2251 DEB.

Object identification

Identified? True

Debris? True

Object name: COSMOS 2251 DEB

International designator: 1993-036BMC

Object number (NORAD): 37499

Object ID (CCSDS): 37499

Country: COMMONWEALTH OF INDEPENDENT STATES (CIS)

Current information (Y/N): Y

RCS size: SMALL

Orbital parameters

Period: 100.404 minutes

Inclination: 74.0385 deg

SMA: 7155.841 km

Apoapsis: 798.563 km

Periapsis: 756.849 km

RAAN: 149.3811 deg

Eccentricy: 0.00291468

Argument of periapsis: 253.0907 deg

Mean anomaly: 106.7049 deg

Mean motion: 14.3420673 rev/day

Mean motion (dot): 0.00000682 rev/day2

B* drag term: 0.00025151829 1/REarth

Two-line elements (TLE)

Creation date: Sept. 1, 2025, 7:24 p.m.

Reference frame: TEME

Reference center: EARTH

Epoch: Sept. 1, 2025, 11:27 a.m. UTC

TLE line 0: 0 COSMOS 2251 DEB

TLE line 1: 1 37499U 93036BMC 25244.47772612 .00000682 00000-0 25152-3 0 9990

TLE line 2: 2 37499 74.0385 149.3811 0029147 253.0907 106.7049 14.34206730836832

Live tracking on map

Real-time ground track for satellite COSMOS 2251 DEB.

In-orbit conjunctions

A list of the most updated potential collisions computed for object COSMOS 2251 DEB.

Target Orbit TCA Probability of collision Miss distance Type
IRIDIUM 24 LEO 2025-02-06 15:10:43 0.0002112623 668.0 (m) PAYLOAD
CZ-4 DEB SSO 2024-09-27 06:30:22 0.0003625254 78.0 (m) DEBRIS

Associated space launch

Military communications satellite. Destroyed in a collision with Iridium 33.

COSMOS 2251 DEB was lifted into orbit during the mission ‘Kosmos-3M | Strela-2M 51’, on board a Kosmos-3M space rocket.

The launch took place on June 16, 1993, 4:17 a.m. from 132/1 (132L).

For more information about the launch, click the button.

Launch to space Kosmos-3M | Strela-2M 51
Kosmos-3M | Strela-2M 51

Agency: N/A

Status: Launch Successful

Launch date: June 16, 1993, 4:17 a.m. UTC

Rocket: Kosmos-3M

Launch pad: 132/1 (132L)

Location: Plesetsk Cosmodrome, Russian Federation

...

Latest news about this satellite

There are no fresh news available about this satellite. Check back as we update our databases every day.


Newsletter sign-up

Weekly statistics, charts and insights to help you stay on top of the space industry.